Weather History for Gadsden, AL

Change the Weather History Date:

Friday, October 24, 2014

  Actual Average Record
Temperature  
Mean Temperature 58 °F -  
Max Temperature 73 °F 70 °F 87 °F (1939)
Min Temperature 44 °F 45 °F 26 °F (1937)
Degree Days  
Heating Degree Days 6    
Growing Degree Days 8 (Base 50)    
Moisture  
Dew Point 42 °F    
Average Humidity 63    
Maximum Humidity 87    
Minimum Humidity 23    
Precipitation  
Precipitation 0.00 in - - ()
Sea Level Pressure  
Sea Level Pressure 30.07 in    
Wind  
Wind Speed 3 mph (NNW)    
Max Wind Speed 9 mph    
Max Gust Speed -    
Visibility 10 miles    
Events      
Averages and records for this station are not official NWS values.
T = Trace of Precipitation, MM = Missing Value Source: NWS Daily Summary

Daily Weather History Graph

Daily Weather History Graph

Search for Another Location

Airport:

Trip Planner

Search our weather history database for the weather conditions in past years. The results will help you decide how hot, cold, wet, or windy it might be!

Date:

Astronomy

Oct. 24, 2014 Rise Set
Actual Time 6:56 AM CDT 5:59 PM CDT
Civil Twilight 6:31 AM CDT 6:25 PM CDT
Nautical Twilight 6:02 AM CDT 6:54 PM CDT
Astronomical Twilight 5:33 AM CDT 7:23 PM CDT
Moon 7:33 AM CDT (10/24) 6:41 PM CDT (10/24)
Length of Visible Light 11h 53m
Length of Day
11h 02m
New Moon, 1% of the Moon is Illuminated
Oct 24
New Moon
Oct 30
First Quarter
Nov 6
Full
Nov 14
Last Quarter
Nov 22
New

Hourly Weather History & Observations

Time (CDT) Temp. Dew Point Humidity Pressure Visibility Wind Dir Wind Speed Gust Speed Precip Events Conditions
12:15 AM 50.0 °F 42.8 °F 76% 30.08 in 10.0 mi West 5.8 mph - N/A   Clear
12:35 AM 50.0 °F 44.6 °F 82% 30.09 in 10.0 mi WSW 4.6 mph - N/A   Clear
12:55 AM 50.0 °F 44.6 °F 82% 30.09 in 10.0 mi WSW 5.8 mph - N/A   Clear
1:15 AM 48.2 °F 44.6 °F 87% 30.09 in 10.0 mi Calm Calm - N/A   Clear
1:35 AM 50.0 °F 44.6 °F 82% 30.08 in 10.0 mi Calm Calm - N/A   Clear
1:55 AM 50.0 °F 44.6 °F 82% 30.08 in 10.0 mi Calm Calm - N/A   Clear
2:15 AM 50.0 °F 44.6 °F 82% 30.08 in 10.0 mi Calm Calm - N/A   Clear
2:35 AM 50.0 °F 44.6 °F 82% 30.07 in 10.0 mi Calm Calm - N/A   Clear
2:55 AM 50.0 °F 44.6 °F 82% 30.06 in 10.0 mi Calm Calm - N/A   Clear
3:15 AM 50.0 °F 44.6 °F 82% 30.06 in 10.0 mi Calm Calm - N/A   Clear
3:35 AM 50.0 °F 44.6 °F 82% 30.06 in 10.0 mi Calm Calm - N/A   Clear
3:55 AM 48.2 °F 44.6 °F 87% 30.05 in 10.0 mi Calm Calm - N/A   Clear
4:15 AM 50.0 °F 44.6 °F 82% 30.07 in 10.0 mi WNW 4.6 mph - N/A   Clear
4:35 AM 50.0 °F 44.6 °F 82% 30.09 in 10.0 mi West 8.1 mph - N/A   Clear
4:55 AM 51.8 °F 44.6 °F 76% 30.09 in 10.0 mi SSW 8.1 mph - N/A   Clear
5:15 AM 48.2 °F 44.6 °F 87% 30.10 in 10.0 mi Calm Calm - N/A   Clear
5:35 AM 48.2 °F 44.6 °F 87% 30.10 in 10.0 mi West 3.5 mph - N/A   Clear
5:55 AM 48.2 °F 44.6 °F 87% 30.10 in 10.0 mi North 3.5 mph - N/A   Clear
6:15 AM 48.2 °F 44.6 °F 87% 30.09 in 10.0 mi Calm Calm - N/A   Clear
6:35 AM 48.2 °F 42.8 °F 82% 30.10 in 10.0 mi Calm Calm - N/A   Clear
6:55 AM 46.4 °F 42.8 °F 87% 30.09 in 10.0 mi Calm Calm - N/A   Clear
7:15 AM 48.2 °F 44.6 °F 87% 30.09 in 10.0 mi Calm Calm - N/A   Clear
7:35 AM 48.2 °F 44.6 °F 87% 30.09 in 10.0 mi NNE 4.6 mph - N/A   Clear
7:55 AM 50.0 °F 46.4 °F 87% 30.09 in 10.0 mi North 5.8 mph - N/A   Clear
8:15 AM 51.8 °F 46.4 °F 82% 30.09 in 10.0 mi NNE 5.8 mph - N/A   Clear
8:35 AM 53.6 °F 46.4 °F 77% 30.11 in 10.0 mi NW 6.9 mph - N/A   Clear
8:55 AM 55.4 °F 46.4 °F 72% 30.12 in 10.0 mi NW 5.8 mph - N/A   Clear
9:15 AM 55.4 °F 44.6 °F 67% 30.12 in 10.0 mi Calm Calm - N/A   Clear
9:35 AM 57.2 °F 44.6 °F 63% 30.12 in 10.0 mi NNW 5.8 mph - N/A   Clear
9:55 AM 59.0 °F 44.6 °F 59% 30.12 in 10.0 mi Calm Calm - N/A   Clear
10:15 AM 60.8 °F 44.6 °F 55% 30.12 in 10.0 mi NNE 4.6 mph - N/A   Clear
10:35 AM 62.6 °F 44.6 °F 52% 30.12 in 10.0 mi North 6.9 mph - N/A   Clear
10:55 AM 64.4 °F 44.6 °F 49% 30.12 in 10.0 mi NE 6.9 mph - N/A   Clear
11:15 AM 64.4 °F 44.6 °F 49% 30.10 in 10.0 mi North 5.8 mph - N/A   Clear
11:35 AM 66.2 °F 44.6 °F 46% 30.09 in 10.0 mi North 3.5 mph - N/A   Clear
11:55 AM 68.0 °F 44.6 °F 43% 30.09 in 10.0 mi NNE 8.1 mph - N/A   Clear
12:15 PM 68.0 °F 42.8 °F 40% 30.08 in 9.0 mi North 5.8 mph - N/A   Clear
12:35 PM 69.8 °F 42.8 °F 38% 30.06 in 10.0 mi North 5.8 mph - N/A   Clear
12:55 PM 71.6 °F 42.8 °F 35% 30.06 in 10.0 mi Calm Calm - N/A   Clear
1:15 PM 71.6 °F 39.2 °F 31% 30.05 in 10.0 mi NNE 4.6 mph - N/A   Clear
1:35 PM 71.6 °F 41.0 °F 33% 30.05 in 10.0 mi NNE 8.1 mph - N/A   Clear
1:55 PM 71.6 °F 39.2 °F 31% 30.04 in 10.0 mi North 4.6 mph - N/A   Clear
2:15 PM 71.6 °F 39.2 °F 31% 30.04 in 10.0 mi Calm Calm - N/A   Clear
2:35 PM 73.4 °F 37.4 °F 27% 30.03 in 10.0 mi NNW 9.2 mph - N/A   Clear
2:55 PM 73.4 °F 37.4 °F 27% 30.03 in 10.0 mi NNW 6.9 mph - N/A   Clear
3:15 PM 73.4 °F 37.4 °F 27% 30.03 in 10.0 mi NW 6.9 mph - N/A   Clear
3:35 PM 73.4 °F 35.6 °F 25% 30.03 in 10.0 mi North 6.9 mph - N/A   Clear
3:55 PM 73.4 °F 33.8 °F 23% 30.03 in 10.0 mi NW 8.1 mph - N/A   Clear
4:15 PM 71.6 °F 35.6 °F 27% 30.03 in 10.0 mi NW 8.1 mph - N/A   Clear
4:35 PM 71.6 °F 33.8 °F 25% 30.03 in 10.0 mi NNW 6.9 mph - N/A   Clear
4:55 PM 71.6 °F 37.4 °F 29% 30.03 in 10.0 mi NNW 4.6 mph - N/A   Clear
5:15 PM 69.8 °F 37.4 °F 31% 30.03 in 10.0 mi NW 5.8 mph - N/A   Clear
5:35 PM 68.0 °F 37.4 °F 33% 30.03 in 10.0 mi Calm Calm - N/A   Clear
5:55 PM 66.2 °F 37.4 °F 35% 30.03 in 10.0 mi NNW 3.5 mph - N/A   Clear
6:15 PM 62.6 °F 39.2 °F 42% 30.04 in 10.0 mi NW 3.5 mph - N/A   Clear
6:35 PM 60.8 °F 39.2 °F 45% 30.04 in 10.0 mi NW 4.6 mph - N/A   Clear
6:55 PM 55.4 °F 42.8 °F 63% 30.04 in 10.0 mi Calm Calm - N/A   Clear
7:15 PM 53.6 °F 42.8 °F 67% 30.05 in 10.0 mi Calm Calm - N/A   Clear
7:35 PM 51.8 °F 42.8 °F 71% 30.05 in 10.0 mi Calm Calm - N/A   Clear
7:55 PM 50.0 °F 42.8 °F 76% 30.06 in 10.0 mi Calm Calm - N/A   Clear
8:15 PM 50.0 °F 41.0 °F 71% 30.06 in 10.0 mi Calm Calm - N/A   Clear
8:35 PM 48.2 °F 41.0 °F 76% 30.07 in 10.0 mi Calm Calm - N/A   Clear
8:55 PM 51.8 °F 39.2 °F 62% 30.08 in 10.0 mi Calm Calm - N/A   Clear
9:15 PM 50.0 °F 39.2 °F 66% 30.08 in 10.0 mi Calm Calm - N/A   Clear
9:35 PM 48.2 °F 39.2 °F 71% 30.08 in 10.0 mi Calm Calm - N/A   Clear
9:55 PM 46.4 °F 39.2 °F 76% 30.08 in 10.0 mi Calm Calm - N/A   Clear
10:15 PM 46.4 °F 37.4 °F 71% 30.08 in 10.0 mi Calm Calm - N/A   Clear
10:35 PM 44.6 °F 39.2 °F 81% 30.08 in 10.0 mi Calm Calm - N/A   Clear
10:55 PM 44.6 °F 37.4 °F 76% 30.08 in 10.0 mi Calm Calm - N/A   Clear
11:15 PM 46.4 °F 39.2 °F 76% 30.08 in 10.0 mi Calm Calm - N/A   Clear
11:35 PM 44.6 °F 39.2 °F 81% 30.08 in 10.0 mi Calm Calm - N/A   Clear
11:55 PM 44.6 °F 39.2 °F 81% 30.09 in 10.0 mi Calm Calm - N/A   Clear